Regional Weather Roundup
Issued by NWS

Home | Current Version | Previous Version | Graphics & Text | Print | Product List | Glossary On
Versions: 1 2 3 4 5 6 7 8 9 10 11 12 13 14 15 16 17 18 19 20 21 22 23 24 25 26 27 28 29 30 31 32 33 34 35 36 37 38 39 40 41 42 43 44 45 46 47 48 49 50
537
ASUS45 KTFX 170110
RWRMT
MONTANA REGIONAL WEATHER ROUNDUP
NATIONAL WEATHER SERVICE GREAT FALLS MT
600 PM MST MON JAN 16 2017

NOTE: "FAIR" INDICATES FEW OR NO CLOUDS BELOW 12000 FEET WITH NO
SIGNIFICANT WEATHER AND/OR OBSTRUCTIONS TO VISIBILITY.

MTZ001>007-043-170200-
WEST OF THE DIVIDE

CITY           SKY/WX    TMP DP  RH WIND       PRES   REMARKS
KALISPELL      CLOUDY    12  10  92 CALM      30.28F FOG
MISSOULA       MOCLDY     8   2  76 CALM      30.30F
BUTTE          CLOUDY     9   1  70 S3        30.16R
MULLAN PASS    PTCLDY    22  17  81 S10       30.11F WCI  11
ANACONDA         N/A     14   1  57 CALM      30.19R
DEER LODGE       N/A      9   1  72 W5        30.24R
EUREKA           N/A      7   1  78 CALM      30.27F
HAMILTON         N/A      9   1  72 CALM      30.28R
RONAN            N/A      6   1  80 MISG      30.28  VSB 0
$$

MTZ008-052>055-170200-
SOUTHWEST MONTANA

CITY           SKY/WX    TMP DP  RH WIND       PRES   REMARKS
BOZEMAN        CLOUDY    12   4  70 W3        30.17R
DILLON         CLOUDY    21   2  43 SE9       30.16S WCI  11
ENNIS          CLEAR     18   7  62 CALM      30.20R
TWIN BRIDGES     N/A     13   0  56 SE3       30.14S
$$

MTZ009-010-012-014-046-048-049-054-170200-
EAST SLOPES AND CENTRAL MONTANA

CITY           SKY/WX    TMP DP  RH WIND       PRES   REMARKS
CUT BANK       PTCLDY    35  20  54 W23       29.90F WCI  23
GREAT FALLS    CLOUDY    32  18  56 SW21      29.99F WCI  20
MALMSTROM AFB  CLOUDY    31  21  66 SW21      30.00S WCI  19
HELENA         CLOUDY     6  -1  73 NE3       30.19R
AUGUSTA          N/A     33  17  51 S8        29.96S WCI  26
BOWMANS CRNR     N/A     26  15  64 S24       29.99S WCI  10
CHOTEAU          N/A     45  16  31 W8G21     29.96F
CONRAD           N/A     22  18  85 S2        29.95F
FAIRFIELD        N/A     31  18  59 S17       29.96F WCI  19
POWER            N/A     30  19  62 SW16      29.96F WCI  18
RAYNESFORD     MOCLDY    38  16  41 SW22G30   29.98F WCI  28
ULM              N/A     30  18  60 MISG      30.01S
$$

MTZ011-013-016-021-045-047-050-051-170200-
NORTH CENTRAL MONTANA

CITY           SKY/WX    TMP DP  RH WIND       PRES   REMARKS
HAVRE          CLOUDY    19  13  77 VRB5      29.97F
LEWISTOWN      CLOUDY    25  12  58 S8        29.98F WCI  16
N BAR RANCH      N/A     25  12  58 W5        30.01F
CHINOOK          N/A     18   9  68 E6        29.99F WCI   9
DENTON           N/A     24  16  71 SW10      29.96F WCI  14
FORT BENTON      N/A     19  12  73 MISG      29.99F
GEYSER           N/A     27  16  63 SW9       29.97F WCI  18
GRASS RANGE      N/A     25  16  66 SW6       29.96F WCI  18
JUDITH GAP     MOCLDY    26  14  60 SW16      29.99S WCI  13
ROY              N/A     30  16  55 MISG      29.98F
STANFORD         N/A     30  14  51 CALM      29.98F
WINIFRED         N/A     31  14  48 S5        29.97F
$$

MTZ017>020-022>027-061-062-170200-
NORTHEAST MONTANA

CITY           SKY/WX    TMP DP  RH WIND       PRES   REMARKS
GLASGOW        CLOUDY     9   3  77 S9        30.04F WCI  -4
JORDAN           N/A     22  13  68 W3        30.03F
SIDNEY         CLOUDY    13   9  84 SW8       30.09F WCI   2
WOLF POINT     CLOUDY     5   0  79 NW3       30.08F
PLENTYWOOD       N/A     10   9  92 E7        30.03F WCI   0
POPLAR           N/A     12   9  85 CALM      30.08F
SCOBEY           N/A     17   3  54 S2        29.98F
$$

MTZ028>42-056>058-170200-
SOUTHCENTRAL AND SOUTHEAST MONTANA

CITY           SKY/WX    TMP DP  RH WIND       PRES   REMARKS
BAKER          CLOUDY    11   6  81 CALM      30.09F
BILLINGS       CLOUDY    24   9  52 SW25G31   30.05F WCI   8
LIVINGSTON     CLOUDY    27  10  49 W20       30.09R WCI  13
MILES CITY     CLEAR     13   4  67 SE8       30.09F WCI   2
BIG TIMBER     CLEAR     32  10  40 W30       30.05F WCI  18
FORSYTH          N/A     12   9  85 CALM      30.10F
HARLOWTON        N/A     31  13  47 W26G35    30.02S WCI  17
LAUREL           N/A     20   7  57 SW10      30.04F WCI   9
$$

REGIONAL REPORTS...DAKOTAS

CITY           SKY/WX    TMP DP  RH WIND       PRES   REMARKS
WILLISTON      CLEAR     14  10  84 S3        30.08F
MINOT          CLOUDY    21  16  81 SW5       30.04S
DICKINSON      CLOUDY    15  10  80 W10       30.04F WCI   2
BEACH            N/A     18  10  73 SW8       30.10F WCI   7
CROSBY           N/A     14  10  85 S12       30.05F WCI   0
TIOGA            N/A     10  10 100 SW8       30.06F WCI  -1
WATFORD CITY     N/A      9   7  92 SW6       30.09S WCI  -1
BISMARCK       CLOUDY    14  10  84 CALM      30.09F
GRAND FORKS    CLOUDY    10   6  84 W3        30.04S
FARGO          CLOUDY    15  10  80 S5        30.07R
BUFFALO SD       N/A     18  11  74 W10       30.02F WCI   6
RAPID CITY     CLOUDY    27  16  63 NW21      30.09R WCI  13
$$

REGIONAL REPORTS...WYOMING/IDAHO/WASHINGTON

CITY           SKY/WX    TMP DP  RH WIND       PRES   REMARKS
GILLETTE       CLOUDY    20  10  65 SW8       30.10S WCI  10
SHERIDAN       CLOUDY    17   6  62 S3        30.09S
BUFFALO WY     CLOUDY    26   8  46 SW7       30.10S WCI  18
CODY           CLOUDY    12   5  73 S5        30.08F
YELLOWSTONE LA   N/A     -1  -3  91 CALM      30.17R
IDAHO FALLS    CLOUDY     1  -4  79 CALM      30.33R
SALMON         CLOUDY   -11 -17  77 CALM      30.47R
BOISE          CLOUDY     9   3  77 W6        30.43S HAZE    WCI  -1
SPOKANE        FOG       16  14  92 CALM      30.25F VSB 1/4
$$

REGIONAL REPORTS...ALBERTA

CITY           SKY/WX    TMP DP  RH WIND       PRES   REMARKS
EDMONTON       MOCLDY    36  18  48 S10       29.56F WCI  28
CALGARY        MOCLDY    39  23  52 SW9       29.74F
LETHBRIDGE     MOCLDY    37  27  65 SW17G28   29.83F WCI  28
MEDICINE HAT   MOCLDY    34  23  64 SW17G24   29.83F WCI  23
WATERTON GATE    N/A     34  16  47 SW29G43     N/A  WCI  20
CARDSTON         N/A     41  18  38 SW14G24     N/A
MILK RIVER       N/A     28  21  74 S9          N/A  WCI  20
$$

REGIONAL REPORTS...SASKATCHEWAN

CITY           SKY/WX    TMP DP  RH WIND       PRES   REMARKS
SWIFT CURRENT  PTCLDY    25  18  74 SW22      29.84F WCI  10
REGINA         PTCLDY    14  10  85 SE10      29.97F WCI   1
SASKATOON      CLOUDY    27  18  69 SW10      29.85F WCI  17
VAL MARIE        N/A     14  10  85 S10         N/A  WCI   1
ROCKGLEN         N/A     19  14  79 W8          N/A  WCI   9
ASSINIBOIA       N/A     28  19  69 S9          N/A  WCI  20
$$




USA.gov is the U.S. government's official web portal to all federal, state and local government web resources and services.